Date String (YYYY-MM-DD hh:mm:ss) UTC,Instrument flags,Ambient pressure (hPa),Sample flow (lpm),Bypass flow (lpm),Sample temperature (°C),Ambient temperature (°C),ASC tube jacket temperature (°C),LED temperature (°C),Box temperature (°C),Sample RH (%),Span deviation,Mass concentration (μg/m³),Mass concentration (μg/m³),Mass concentration (μg/m³)
DateTimeUTC,F1_M11,P_M11,Q1_M11,Q2_M11,T1_M11,T2_M11,T3_M11,T4_M11,T5_M11,U1_M11,ZSPAN_M11,X0_M11,X2_M11,X1_M11
2022-09-16 22:00:00,,0824.7,4.99,0.00,29.9,28.7,00.0,38.5,31.8,19.6,0000.0,0001.91,0001.29,0001.03
2022-09-16 22:01:00,,0824.4,5.01,0.00,29.9,28.7,00.0,38.5,31.8,19.1,0000.0,0001.94,0001.29,0001.02
2022-09-16 22:02:00,,0824.5,5.00,0.00,30.0,28.8,00.0,38.6,31.9,18.6,0000.0,0002.09,0001.29,0001.01
2022-09-16 22:03:00,,0824.4,4.99,0.00,30.0,28.9,00.0,38.6,31.9,18.6,0000.0,0003.18,0001.28,0001.01
2022-09-16 22:04:00,,0824.4,5.01,0.00,30.0,28.8,00.0,38.6,32.0,18.6,0000.0,0003.35,0001.26,0001.01
2022-09-16 22:05:00,,0824.5,5.00,0.00,30.0,27.6,00.0,38.6,31.9,19.0,0000.0,0003.13,0001.21,0000.99
2022-09-16 22:06:00,,0824.5,5.00,0.00,30.0,27.2,00.0,38.6,31.9,19.2,0000.0,0002.99,0001.19,0000.97
2022-09-16 22:07:00,,0824.4,5.01,0.00,30.0,27.3,00.0,38.6,31.7,19.0,0000.0,0002.98,0001.17,0000.94
2022-09-16 22:08:00,,0824.4,5.00,0.00,29.9,27.6,00.0,38.5,31.7,18.8,0000.0,0002.95,0001.14,0000.92
2022-09-16 22:09:00,,0824.4,4.99,0.00,29.9,27.9,00.0,38.5,31.7,19.2,0000.0,0002.91,0001.11,0000.89
2022-09-16 22:10:00,,0824.3,5.01,0.00,29.9,28.1,00.0,38.5,31.7,19.0,0000.0,0002.75,0001.03,0000.87
2022-09-16 22:11:00,,0824.3,4.99,0.00,29.9,28.3,00.0,38.5,31.7,18.9,0000.0,0002.66,0000.96,0000.83
2022-09-16 22:12:00,,0824.3,5.01,0.00,29.9,28.4,00.0,38.6,31.8,19.1,0000.0,0002.61,0000.90,0000.79
2022-09-16 22:13:00,,0824.3,4.99,0.00,30.0,28.6,00.0,38.6,31.8,19.0,0000.0,0002.43,0000.86,0000.74
2022-09-16 22:14:00,,0824.3,5.01,0.00,30.0,28.7,00.0,38.6,31.9,18.5,0000.0,0001.47,0000.81,0000.70
2022-09-16 22:15:00,,0824.3,5.00,0.00,30.0,28.8,00.0,38.6,31.9,18.4,0000.0,0000.96,0000.77,0000.67
2022-09-16 22:16:00,,0824.3,4.99,0.00,30.0,28.9,00.0,38.6,31.9,18.6,0000.0,0000.95,0000.75,0000.64
2022-09-16 22:17:00,,0824.3,5.01,0.00,30.1,28.6,00.0,38.7,32.0,18.3,0000.0,0000.93,0000.72,0000.61
2022-09-16 22:18:00,,0824.3,5.01,0.00,30.1,27.1,00.0,38.6,31.9,18.1,0000.0,0000.86,0000.67,0000.58
2022-09-16 22:19:00,,0824.3,5.00,0.00,30.0,26.4,00.0,38.6,31.7,18.6,0000.0,0000.85,0000.65,0000.55
2022-09-16 22:20:00,,0824.3,5.00,0.00,29.9,26.6,00.0,38.6,31.7,18.6,0000.0,0000.79,0000.61,0000.53
2022-09-16 22:21:00,,0824.3,5.00,0.00,29.8,26.8,00.0,38.5,31.5,18.7,0000.0,0000.87,0000.62,0000.51
2022-09-16 22:22:00,,0824.2,5.00,0.00,29.8,27.2,00.0,38.5,31.4,18.6,0000.0,0000.89,0000.62,0000.50
2022-09-16 22:23:00,,0824.2,5.00,0.00,29.8,27.5,00.0,38.5,31.5,18.7,0000.0,0000.87,0000.61,0000.49
2022-09-16 22:24:00,,0824.2,4.99,0.00,29.8,27.8,00.0,38.5,31.5,19.0,0000.0,0000.83,0000.59,0000.49
2022-09-16 22:25:00,,0824.2,5.01,0.00,29.8,28.1,00.0,38.5,31.6,18.9,0000.0,0000.80,0000.58,0000.48
2022-09-16 22:26:00,,0824.2,4.99,0.00,29.8,28.2,00.0,38.5,31.6,18.9,0000.0,0000.81,0000.58,0000.49
2022-09-16 22:27:00,,0824.1,5.01,0.00,29.8,28.4,00.0,38.5,31.6,18.7,0000.0,0000.83,0000.58,0000.49
2022-09-16 22:28:00,,0824.1,5.00,0.00,29.9,28.5,00.0,38.5,31.7,18.7,0000.0,0001.06,0000.59,0000.50
2022-09-16 22:29:00,,0824.1,5.00,0.00,29.9,28.7,00.0,38.5,31.8,18.7,0000.0,0001.18,0000.61,0000.50
2022-09-16 22:30:00,,0824.1,5.00,0.00,29.9,28.8,00.0,38.5,31.8,18.6,0000.0,0001.20,0000.62,0000.52
2022-09-16 22:31:00,,0824.0,5.01,0.00,30.0,28.9,00.0,38.6,31.9,19.0,0000.0,0001.23,0000.63,0000.51
2022-09-16 22:32:00,,0824.0,5.00,0.00,30.0,28.5,00.0,38.6,31.9,18.7,0000.0,0001.15,0000.61,0000.52
2022-09-16 22:33:00,,0824.0,5.01,0.00,30.0,27.1,00.0,38.6,31.8,18.5,0000.0,0001.09,0000.61,0000.53
2022-09-16 22:34:00,,0824.0,5.00,0.00,29.9,26.4,00.0,38.5,31.7,18.6,0000.0,0001.13,0000.63,0000.55
2022-09-16 22:35:00,,0824.0,4.99,0.00,29.8,26.6,00.0,38.5,31.5,18.2,0000.0,0001.21,0000.67,0000.56
2022-09-16 22:36:00,,0824.0,5.00,0.00,29.8,26.8,00.0,38.5,31.4,18.2,0000.0,0001.27,0000.69,0000.58
2022-09-16 22:37:00,,0824.0,4.99,0.00,29.7,27.1,00.0,38.4,31.3,18.1,0000.0,0001.28,0000.70,0000.59
2022-09-16 22:38:00,,0824.0,5.01,0.00,29.7,27.5,00.0,38.4,31.4,17.9,0000.0,0001.31,0000.71,0000.60
2022-09-16 22:39:00,,0824.0,5.00,0.00,29.7,27.8,00.0,38.4,31.5,18.0,0000.0,0001.12,0000.71,0000.60
2022-09-16 22:40:00,,0824.0,4.99,0.00,29.7,28.0,00.0,38.4,31.5,18.0,0000.0,0000.97,0000.71,0000.60
2022-09-16 22:41:00,,0824.0,5.02,0.00,29.7,28.2,00.0,38.4,31.6,18.3,0000.0,0000.99,0000.73,0000.62
2022-09-16 22:42:00,,0824.0,4.99,0.00,29.8,28.4,00.0,38.4,31.6,17.7,0000.0,0001.00,0000.76,0000.65
2022-09-16 22:43:00,,0824.0,5.00,0.00,29.8,28.5,00.0,38.4,31.6,18.0,0000.0,0001.07,0000.81,0000.70
2022-09-16 22:44:00,,0824.0,5.01,0.00,29.8,28.6,00.0,38.5,31.7,18.0,0000.0,0001.13,0000.85,0000.72
2022-09-16 22:45:00,,0824.0,5.00,0.00,29.9,28.7,00.0,38.5,31.8,18.0,0000.0,0001.19,0000.89,0000.75
2022-09-16 22:46:00,,0824.0,5.00,0.00,29.9,28.8,00.0,38.5,31.9,18.7,0000.0,0001.20,0000.92,0000.80
2022-09-16 22:47:00,,0823.9,5.02,0.00,30.0,28.3,00.0,38.5,31.9,18.5,0000.0,0001.26,0000.98,0000.85
2022-09-16 22:48:00,,0823.9,5.00,0.00,29.9,27.0,00.0,38.5,31.8,18.3,0000.0,0001.43,0001.07,0000.91
2022-09-16 22:49:00,,0823.9,4.99,0.00,29.9,26.4,00.0,38.5,31.7,18.4,0000.0,0001.55,0001.16,0000.97
2022-09-16 22:50:00,,0824.0,4.99,0.00,29.8,26.6,00.0,38.4,31.5,18.6,0000.0,0001.62,0001.22,0001.03
2022-09-16 22:51:00,,0823.9,5.00,0.00,29.7,26.9,00.0,38.4,31.4,18.6,0000.0,0001.68,0001.28,0001.08
2022-09-16 22:52:00,,0823.8,5.01,0.00,29.7,27.3,00.0,38.4,31.4,18.8,0000.0,0001.79,0001.35,0001.13
2022-09-16 22:53:00,,0823.8,4.99,0.00,29.7,27.5,00.0,38.4,31.4,18.6,0000.0,0001.86,0001.41,0001.19
2022-09-16 22:54:00,,0823.8,5.00,0.00,29.7,27.8,00.0,38.4,31.4,18.7,0000.0,0001.88,0001.44,0001.22
2022-09-16 22:55:00,,0823.9,4.99,0.00,29.7,28.0,00.0,38.4,31.5,18.5,0000.0,0002.47,0001.47,0001.27
2022-09-16 22:56:00,,0823.9,5.00,0.00,29.7,28.2,00.0,38.4,31.6,18.3,0000.0,0003.30,0001.53,0001.31
2022-09-16 22:57:00,,0823.9,4.99,0.00,29.8,28.3,00.0,38.4,31.6,18.6,0000.0,0003.36,0001.58,0001.35
2022-09-16 22:58:00,,0823.8,5.01,0.00,29.8,28.5,00.0,38.4,31.7,18.8,0000.0,0003.37,0001.60,0001.38
2022-09-16 22:59:00,,0823.8,4.99,0.00,29.8,28.6,00.0,38.4,31.7,18.8,0000.0,0003.30,0001.59,0001.40
